[[{"header":{"parameterUnit":"m.s-1","parameterCategory":1,"la1":30.2991,"la2":30.254,"lo1":-89.0895,"lo2":-89.0444,"dy":0.0017,"dx":0.0017,"nx":28,"ny":28,"refTime":"2024-03-10T09:00:00:Z","depth":0,"parameterNumber":2,"parameterNumberName":"U-component_of_WINDS"},"data":[0,0,0,0,0,0,0,0,0,0,0,0,0,0,0,0,0,0,0,0,0,0,0,0,0,0,0,0,0,0,0,0,0,0,0,0,0,0,0,0,0,0,0,0,0,0,0,0,0,0,0,0,0,0,0,0,0,0,-3.8532,-3.8531,0,-3.8515,-3.8515,-3.8515,-3.8386,-3.8382,-3.8379,-3.8376,-3.8364,-3.8367,-3.8369,0,0,0,0,0,0,0,0,0,0,0,0,0,-3.8457,-3.8459,-3.8532,-3.8531,-3.8531,-3.8515,-3.8515,-3.8515,-3.8386,-3.8382,-3.8378,-3.8375,-3.8363,-3.8366,-3.8369,0,0,0,0,0,0,0,0,0,0,0,0,0,-3.847,-3.846,-3.8532,-3.8465,-3.8459,-3.8515,-3.8515,-3.8515,-3.8387,-3.8382,-3.8377,-3.8373,-3.8362,-3.8366,-3.837,-3.849,0,0,-3.8382,-3.8384,0,0,0,0,0,0,0,0,-3.8469,-3.8473,-3.8475,-3.847,-3.8463,-3.8447,-3.8484,-3.8507,-3.8388,-3.8415,-3.8376,-3.8371,-3.8396,-3.8397,-3.8404,-3.849,-3.8489,-3.8382,-3.8385,-3.8386,-3.8388,0,0,0,0,0,0,0,-3.8469,-3.8473,-3.8525,-3.8475,-3.8468,-3.8438,-3.8434,-3.8488,-3.8432,-3.8412,-3.8402,-3.8402,-3.8392,-3.8401,-3.8403,-3.8489,-3.8382,-3.8386,-3.8388,-3.839,-3.8674,-3.8679,0,0,0,0,0,0,-3.8476,-3.8473,-3.8526,-3.8525,-3.8454,-3.8443,-3.8439,-3.8457,-3.8431,-3.8423,-3.8406,-3.8396,-3.8396,-3.8399,-3.8402,-3.8542,-3.8386,-3.839,-3.8392,-3.8669,-3.8675,-3.868,0,0,0,0,0,0,-3.8475,-3.8482,-3.8526,-3.8496,-3.8499,-3.8449,-3.8471,-3.846,-3.8468,-3.8427,-3.8417,-3.8425,-3.8393,-3.8397,-3.8469,-3.854,-3.8392,-3.8396,-3.8662,-3.867,-3.8678,-3.8823,0,0,0,0,0,0,-3.8474,-3.8483,-3.8527,-3.8498,-3.8502,-3.8593,-3.8475,-3.8463,-3.8475,-3.8462,-3.8442,-3.8435,-3.8389,-3.8464,-3.8473,-3.8543,-3.8399,-3.8656,-3.8666,-3.8675,-3.8812,-3.8835,-3.8855,0,0,0,0,0,-3.8471,-3.8569,-3.853,-3.8537,-3.8555,-3.8597,-3.8599,-3.8544,-3.8481,-3.8526,-3.85,-3.8435,-3.8531,-3.8473,-3.8482,-3.8554,-3.8651,-3.8663,-3.8674,-3.8802,-3.8831,-3.8854,0,0,0,0,0,0,-3.8609,-3.8564,-3.852,-3.8611,-3.8609,-3.8575,-3.8629,-3.8575,-3.8591,-3.8579,-3.851,-3.8507,-3.8591,-3.8579,-3.8515,-3.867,-3.858,-3.8594,-3.8674,-3.8701,-3.8722,-3.8723,-3.8402,0,0,0,0,0,-3.8649,-3.8685,-3.8645,-3.8729,-3.873,-3.8681,-3.8697,-3.8654,-3.8649,-3.8648,-3.8627,-3.8627,-3.8656,-3.8678,-3.8703,-3.8809,-3.8804,-3.8864,-3.8885,-3.8903,-3.8916,-3.8974,-3.9,-3.8718,-3.8718,-3.8718,0,0,-3.8734,-3.8714,-3.8741,-3.8756,-3.8749,-3.879,-3.8681,-3.8728,-3.8758,-3.8656,-3.8723,-3.8708,-3.8703,-3.8794,-3.8832,-3.8787,-3.8993,-3.8918,-3.8932,-3.8936,-3.8988,-3.9015,-3.9039,-3.8726,-3.8725,-3.8724,0,0,-3.8909,-3.8897,-3.8966,-3.8962,-3.8952,-3.8919,-3.8936,-3.8911,-3.8896,-3.8962,-3.8887,-3.8923,-3.8975,-3.8975,-3.8982,-3.9159,-3.9101,-3.9169,-3.9281,-3.9338,-3.936,-3.9379,-3.9444,-3.9468,-3.9182,-3.9182,-3.9182,0,-3.9016,-3.9072,-3.9009,-3.9061,-3.9071,-3.898,-3.9051,-3.905,-3.905,-3.906,-3.9008,-3.9072,-3.9063,-3.9153,-3.9196,-3.9204,-3.9223,-3.9171,-3.9362,-3.938,-3.9398,-3.9459,-3.9483,-3.9191,-3.919,-3.9189,-3.9188,0,-3.9205,-3.9245,-3.9303,-3.9304,-3.932,-3.9382,-3.933,-3.9354,-3.9311,-3.9283,-3.9353,-3.9338,-3.9359,-3.9377,-3.9335,-3.9462,-3.9434,-3.9373,-3.9282,-3.9434,-3.949,-3.9513,-3.9203,-3.92,-3.9197,-3.9195,0,0,-3.9466,-3.9432,-3.9454,-3.9454,-3.9438,-3.9469,-3.9527,-3.9546,-3.9569,-3.9573,-3.9621,-3.9668,-3.9612,-3.962,-3.9577,-3.9627,-3.977,-3.956,-3.9559,-3.9601,-3.9911,-3.9958,-3.9986,-3.9731,-3.9735,-3.9739,-3.9912,0,-3.9635,-3.9731,-3.9676,-3.9781,-3.9819,-3.9733,-3.9784,-3.9781,-3.9757,-3.9787,-3.9761,-3.9796,-3.9718,-3.9723,-3.9768,-3.9743,-3.9832,-3.973,-3.9778,-3.978,-3.9783,-4.0015,-4.0064,-4.0228,-3.9933,-3.9937,-3.994,0,-3.9845,-3.9857,-3.9965,-3.9942,-3.9956,-4.0003,-4.0017,-4.0046,-4.0041,-4.002,-4.003,-3.9976,-4.0034,-3.9943,-4.0022,-3.9954,-3.9971,-3.9962,-3.9967,-3.997,-3.987,-4.0026,-4.0279,-4.0305,-3.9973,-3.997,-3.9968,0,-4.0026,-4.0069,-4.014,-4.0142,-4.0117,-4.0153,-4.0144,-4.0134,-4.015,-4.0163,-4.0172,-4.0193,-4.0204,-4.0222,-4.0176,-4.0114,-4.0263,-4.0167,-4.0249,-4.0251,-4.0285,-4.0284,-4.0546,-4.0294,-4.0294,-4.0293,-4.0293,0,-4.0222,-4.0292,-4.0221,-4.0265,-4.0341,-4.0279,-4.0357,-4.0339,-4.0332,-4.0372,-4.0299,-4.0338,-4.0274,-4.0308,-4.0272,-4.0345,-4.035,-4.0337,-4.0327,-4.0344,-4.0346,-4.0355,-4.0343,-4.03,-4.0298,-4.0297,-4.0296,0,-4.0437,-4.0392,-4.0464,-4.0434,-4.0429,-4.0487,-4.0462,-4.0502,-4.0474,-4.0526,-4.0534,-4.049,-4.0526,-4.0482,-4.0514,-4.049,-4.0589,-4.0561,-4.0591,-4.0583,-4.0668,-4.0661,-4.0946,-4.0981,-4.0706,-4.0708,-4.0711,0,-4.0565,-4.0617,-4.0593,-4.0614,-4.061,-4.0644,-4.066,-4.0601,-4.062,-4.0619,-4.0661,-4.069,-4.0711,-4.0773,-4.0745,-4.077,-4.0744,-4.0842,-4.0747,-4.0763,-4.0747,-4.0745,-4.0751,-4.0862,-4.0865,-4.0868,-4.087,0,-4.0798,-4.0774,-4.0797,-4.0815,-4.0835,-4.0846,-4.0852,-4.0874,-4.0812,-4.0838,-4.0874,-4.089,-4.0923,-4.0954,-4.0972,-4.0965,-4.0909,-4.09,-4.092,-4.0939,-4.0954,-4.0949,-4.0645,-4.0894,-4.0891,-4.089,-4.0888,-4.0887,-4.0975,-4.1017,-4.1007,-4.1037,-4.1035,-4.1042,-4.1079,-4.1055,-4.1083,-4.1104,-4.1068,-4.1114,-4.1109,-4.1126,-4.1126,-4.1162,-4.112,-4.1149,-4.1157,-4.1166,-4.1179,-4.0948,-4.1165,-4.1164,-4.1163,-4.1163,-4.1162,0,-4.1205,-4.1194,-4.1222,-4.1232,-4.1256,-4.1199,-4.1203,-4.1228,-4.1268,-4.1268,-4.1289,-4.1332,-4.1362,-4.1337,-4.1362,-4.1396,-4.1371,-4.1405,-4.1403,-4.1402,-4.1214,-4.1195,-4.1425,-4.1425,-4.1425,-4.1425,-4.1425,-4.1425,-4.1327,-4.1396,-4.1371,-4.144,-4.1429,-4.1471,-4.1479,-4.1486,-4.1486,-4.1535,-4.156,-4.1542,-4.1533,-4.1557,-4.1583,-4.1575,-4.1589,-4.1633,-4.1616,-4.1441,-4.1415,-4.1391,-4.1372,-4.1636,-4.1636,-4.1801,-4.1802,-4.1803]},{"header":{"parameterUnit":"m.s-1","parameterCategory":1,"la1":30.2991,"la2":30.254,"lo1":-89.0895,"lo2":-89.0444,"dy":0.0017,"dx":0.0017,"nx":28,"ny":28,"refTime":"2024-03-10T09:00:00:Z","depth":0,"parameterNumber":3,"parameterNumberName":"V-component_of_WINDS"},"data":[0,0,0,0,0,0,0,0,0,0,0,0,0,0,0,0,0,0,0,0,0,0,0,0,0,0,0,0,0,0,0,0,0,0,0,0,0,0,0,0,0,0,0,0,0,0,0,0,0,0,0,0,0,0,0,0,0,0,-0.4879,-0.488,0,-0.4935,-0.4936,-0.4937,-0.4929,-0.4928,-0.4927,-0.4926,-0.4986,-0.4988,-0.499,0,0,0,0,0,0,0,0,0,0,0,0,0,-0.4766,-0.4768,-0.4879,-0.488,-0.488,-0.4935,-0.4936,-0.4937,-0.4929,-0.4928,-0.4927,-0.4926,-0.4985,-0.4988,-0.4991,0,0,0,0,0,0,0,0,0,0,0,0,0,-0.4818,-0.4769,-0.4879,-0.4883,-0.4884,-0.4935,-0.4936,-0.4937,-0.4929,-0.4928,-0.4926,-0.4925,-0.4984,-0.4987,-0.4991,-0.5042,0,0,-0.5002,-0.5004,0,0,0,0,0,0,0,0,-0.4815,-0.4822,-0.4882,-0.4883,-0.4884,-0.4923,-0.4918,-0.4972,-0.493,-0.4912,-0.4926,-0.4924,-0.4966,-0.4971,-0.4985,-0.5045,-0.5047,-0.5003,-0.5005,-0.5007,-0.5008,0,0,0,0,0,0,0,-0.4812,-0.482,-0.4901,-0.4883,-0.4884,-0.4883,-0.4888,-0.4928,-0.4946,-0.4914,-0.4913,-0.492,-0.4967,-0.4981,-0.4986,-0.5048,-0.5003,-0.5006,-0.5008,-0.501,-0.5153,-0.5154,0,0,0,0,0,0,-0.4807,-0.4817,-0.49,-0.4903,-0.4845,-0.4886,-0.4892,-0.4912,-0.4946,-0.495,-0.4921,-0.4919,-0.4976,-0.4982,-0.4988,-0.5051,-0.5007,-0.501,-0.5012,-0.5151,-0.5153,-0.5155,0,0,0,0,0,0,-0.4804,-0.4814,-0.4897,-0.486,-0.487,-0.4889,-0.4912,-0.4914,-0.4929,-0.4951,-0.4955,-0.4933,-0.4975,-0.4983,-0.5029,-0.5053,-0.5012,-0.5015,-0.5149,-0.5152,-0.5154,-0.5176,0,0,0,0,0,0,-0.4801,-0.4813,-0.4833,-0.486,-0.4872,-0.4936,-0.4913,-0.4916,-0.4935,-0.4933,-0.4963,-0.4967,-0.4974,-0.5023,-0.5032,-0.5057,-0.5018,-0.5147,-0.5151,-0.5153,-0.5173,-0.5179,-0.5184,0,0,0,0,0,-0.4797,-0.4837,-0.4834,-0.4844,-0.4897,-0.4938,-0.4945,-0.4952,-0.4937,-0.4957,-0.4971,-0.4966,-0.5048,-0.5028,-0.5038,-0.5065,-0.5146,-0.515,-0.5153,-0.5171,-0.5178,-0.5184,0,0,0,0,0,0,-0.4813,-0.4841,-0.4838,-0.4888,-0.491,-0.4936,-0.4962,-0.4959,-0.4987,-0.4984,-0.4992,-0.4999,-0.5045,-0.5059,-0.5036,-0.5116,-0.5095,-0.5101,-0.5105,-0.5112,-0.5117,-0.5114,-0.5021,0,0,0,0,0,-0.4822,-0.4852,-0.4875,-0.4917,-0.4929,-0.4943,-0.4961,-0.4964,-0.4989,-0.4999,-0.5016,-0.504,-0.5071,-0.5092,-0.5122,-0.5174,-0.5181,-0.5197,-0.5203,-0.5207,-0.5212,-0.5242,-0.5249,-0.5167,-0.5167,-0.5167,0,0,-0.4842,-0.4861,-0.488,-0.4921,-0.4939,-0.4971,-0.4952,-0.4986,-0.501,-0.5004,-0.5048,-0.5062,-0.5089,-0.5138,-0.5161,-0.5151,-0.5236,-0.5211,-0.5214,-0.5218,-0.5246,-0.5254,-0.5261,-0.5169,-0.5169,-0.5168,0,0,-0.4894,-0.4911,-0.4948,-0.4966,-0.4993,-0.5002,-0.5011,-0.5037,-0.5046,-0.509,-0.5086,-0.5115,-0.5168,-0.5188,-0.5205,-0.5263,-0.526,-0.5273,-0.5301,-0.5329,-0.5336,-0.5341,-0.5363,-0.5371,-0.5278,-0.5278,-0.5278,0,-0.4916,-0.4963,-0.4968,-0.5003,-0.5021,-0.5016,-0.5054,-0.5071,-0.5107,-0.512,-0.5108,-0.5175,-0.5193,-0.5247,-0.5261,-0.5274,-0.5285,-0.527,-0.5334,-0.534,-0.5346,-0.5367,-0.5375,-0.5279,-0.5279,-0.5279,-0.5279,0,-0.4988,-0.5021,-0.5048,-0.5082,-0.5103,-0.5139,-0.515,-0.5171,-0.5171,-0.5182,-0.5227,-0.5248,-0.5282,-0.5294,-0.5296,-0.5349,-0.5342,-0.5332,-0.5312,-0.5355,-0.5375,-0.5383,-0.5281,-0.5281,-0.528,-0.528,0,0,-0.5055,-0.5089,-0.5099,-0.5115,-0.5143,-0.5169,-0.5205,-0.5237,-0.5256,-0.528,-0.5311,-0.5355,-0.5346,-0.5365,-0.5368,-0.5393,-0.5439,-0.538,-0.5381,-0.5392,-0.5499,-0.5508,-0.5517,-0.5436,-0.5437,-0.5438,-0.5498,0,-0.5111,-0.5174,-0.5179,-0.5236,-0.5266,-0.5261,-0.5292,-0.5313,-0.5323,-0.5351,-0.5362,-0.5394,-0.5379,-0.5391,-0.5414,-0.5428,-0.5461,-0.5424,-0.5466,-0.5467,-0.5461,-0.5528,-0.5537,-0.5592,-0.5505,-0.5507,-0.5508,0,-0.5186,-0.5212,-0.5272,-0.5296,-0.5309,-0.5337,-0.5367,-0.5393,-0.5417,-0.5422,-0.5443,-0.5443,-0.548,-0.5456,-0.5508,-0.5483,-0.55,-0.5509,-0.5511,-0.5517,-0.5492,-0.5537,-0.561,-0.5619,-0.552,-0.5519,-0.5518,0,-0.523,-0.5279,-0.5322,-0.5335,-0.5363,-0.5383,-0.5396,-0.5418,-0.5438,-0.5464,-0.5476,-0.5506,-0.5524,-0.5547,-0.5555,-0.5537,-0.5607,-0.5584,-0.5614,-0.5614,-0.5631,-0.563,-0.5709,-0.5638,-0.5638,-0.5638,-0.5638,0,-0.5294,-0.5331,-0.5342,-0.5368,-0.541,-0.5414,-0.5455,-0.5467,-0.5487,-0.5515,-0.5512,-0.5539,-0.5547,-0.5576,-0.5582,-0.5624,-0.5632,-0.5638,-0.564,-0.564,-0.5639,-0.5652,-0.565,-0.564,-0.564,-0.5639,-0.5639,0,-0.5351,-0.536,-0.5406,-0.5428,-0.5435,-0.5465,-0.5484,-0.551,-0.5519,-0.5555,-0.5564,-0.5578,-0.5612,-0.5621,-0.5662,-0.5666,-0.5716,-0.5713,-0.5708,-0.5709,-0.5738,-0.5736,-0.583,-0.5843,-0.5763,-0.5763,-0.5764,0,-0.5392,-0.542,-0.5446,-0.5465,-0.5478,-0.5508,-0.5527,-0.5532,-0.5553,-0.5581,-0.5603,-0.5636,-0.5663,-0.5716,-0.5731,-0.5762,-0.5761,-0.5791,-0.5766,-0.5764,-0.5763,-0.5762,-0.5765,-0.5797,-0.5798,-0.5799,-0.5799,0,-0.5464,-0.5467,-0.5494,-0.5524,-0.5546,-0.557,-0.5592,-0.5607,-0.5615,-0.5638,-0.5672,-0.5693,-0.5733,-0.5766,-0.5797,-0.5811,-0.5807,-0.5807,-0.5816,-0.5817,-0.5813,-0.5817,-0.5723,-0.5805,-0.5805,-0.5804,-0.5804,-0.5804,-0.5516,-0.5541,-0.5563,-0.5594,-0.561,-0.5631,-0.5656,-0.5668,-0.5696,-0.5729,-0.573,-0.5767,-0.5789,-0.583,-0.5845,-0.5874,-0.5865,-0.5878,-0.5881,-0.5885,-0.5888,-0.5807,-0.588,-0.588,-0.5879,-0.5879,-0.5879,0,-0.5589,-0.5603,-0.5631,-0.5662,-0.5686,-0.5678,-0.5702,-0.5723,-0.5756,-0.5776,-0.5802,-0.5841,-0.5872,-0.5888,-0.592,-0.594,-0.5939,-0.5949,-0.5948,-0.5952,-0.5893,-0.5883,-0.5949,-0.5949,-0.5949,-0.5949,-0.5949,-0.5949,-0.5631,-0.5673,-0.5678,-0.5728,-0.5741,-0.5777,-0.5792,-0.5811,-0.5827,-0.5871,-0.5896,-0.5906,-0.5925,-0.5958,-0.5987,-0.599,-0.6003,-0.6014,-0.6017,-0.5963,-0.5956,-0.5949,-0.594,-0.6016,-0.6016,-0.6073,-0.6073,-0.6074]}]]